Rhinelander, WI

3:17 PM CST on February 11, 2016 (GMT -0600)
Rhinelander-Oneida County

Weather History for KRHI - December, 2013

Change the Weather History Date:

Friday, December 6, 2013

  Actual Average Record
Temperature  
Mean Temperature -2 °F 20 °F  
Max Temperature 5 °F 28 °F 52 °F (1998)
Min Temperature -10 °F 12 °F -18 °F (1926)
Degree Days  
Heating Degree Days 67 45  
Month to date heating degree days 268 264  
Since 1 July heating degree days 2495 2398  
Cooling Degree Days 0 0  
Month to date cooling degree days 0 0  
Year to date cooling degree days 281 261  
Moisture  
Dew Point -7 °F    
Average Humidity 80    
Maximum Humidity 87    
Minimum Humidity 72    
Precipitation  
Precipitation T in 0.05 in 0.51 in (1912)
Month to date precipitation 0.89 0.32  
Year to date precipitation 36.10 30.28  
Snow  
Snow T in - 3.50 in (1949)
Month to date snowfall 6.6  
Since 1 July snowfall 16.4  
Snow Depth 6.00 in    
Sea Level Pressure  
Sea Level Pressure 30.38 in    
Wind  
Wind Speed 11 mph (West)    
Max Wind Speed 18 mph    
Max Gust Speed 23 mph    
Visibility 10 miles    
Events      
T = Trace of Precipitation, MM = Missing Value Source: NWS Daily Summary

Daily Weather History Graph

Daily Weather History Graph

Search for Another Location

Airport or City:

Trip Planner

Search our weather history database for the weather conditions in past years. The results will help you decide how hot, cold, wet, or windy it might be!

Date:

Astronomy

Dec. 06, 2013 Rise Set
Actual Time 7:23 AM CST 4:14 PM CST
Civil Twilight 6:49 AM CST 4:48 PM CST
Nautical Twilight 6:12 AM CST 5:25 PM CST
Astronomical Twilight 5:36 AM CST 6:01 PM CST
Moon 10:22 AM CST (12/6) 8:54 PM CST (12/6)
Length of Visible Light 9h 58m
Length of Day
8h 50m
Waxing Crescent, 19% of the Moon is Illuminated
Dec 6
Waxing Crescent
Dec 9
First Quarter
Dec 17
Full
Dec 25
Last Quarter
Jan 1
New

Hourly Weather History & Observations

Time (CST) Temp. Windchill Dew Point Humidity Pressure Visibility Wind Dir Wind Speed Gust Speed Precip Events Conditions
12:02 AM -0.4 °F -21.2 °F -5.8 °F 78% 30.10 in 6.0 mi West 17.3 mph 21.9 mph N/A   Haze
12:53 AM -0.9 °F -20.6 °F -6.0 °F 79% 30.24 in 9.0 mi West 15.0 mph - N/A   Overcast
1:53 AM -2.9 °F -23.1 °F -7.1 °F 82% 30.28 in 10.0 mi West 15.0 mph 21.9 mph N/A   Overcast
2:21 AM -4.0 °F -25.2 °F -7.6 °F 85% 30.15 in 10.0 mi West 16.1 mph - N/A   Scattered Clouds
2:53 AM -5.1 °F -24.3 °F -9.0 °F 83% 30.28 in 10.0 mi West 12.7 mph - N/A   Clear
3:53 AM -6.0 °F -24.6 °F -9.9 °F 83% 30.28 in 10.0 mi West 11.5 mph - N/A   Clear
4:53 AM -7.1 °F -23.9 °F -11.0 °F 83% 30.29 in 10.0 mi West 9.2 mph - N/A   Clear
5:53 AM -8.0 °F -26.1 °F -11.9 °F 83% 30.31 in 10.0 mi West 10.4 mph - N/A   Clear
6:53 AM -9.0 °F -27.4 °F -13.0 °F 83% 30.34 in 10.0 mi West 10.4 mph - N/A   Clear
7:53 AM -9.0 °F -26.4 °F -13.0 °F 83% 30.36 in 10.0 mi West 9.2 mph - N/A   Clear
8:53 AM -7.1 °F -22.8 °F -11.9 °F 79% 30.38 in 10.0 mi West 8.1 mph - N/A   Clear
9:53 AM -4.0 °F -21.2 °F -9.0 °F 79% 30.40 in 10.0 mi West 10.4 mph - N/A   Clear
10:53 AM -0.9 °F -16.4 °F -6.0 °F 79% 30.40 in 10.0 mi West 9.2 mph - N/A   Clear
11:53 AM 1.9 °F -15.5 °F -4.0 °F 76% 30.40 in 10.0 mi West 12.7 mph - N/A   Clear
12:53 PM 3.9 °F -13.7 °F -2.9 °F 73% 30.39 in 10.0 mi West 13.8 mph - N/A   Clear
1:53 PM 5.0 °F -10.8 °F -2.0 °F 73% 30.39 in 10.0 mi West 11.5 mph - N/A   Partly Cloudy
2:53 PM 5.0 °F -12.3 °F -2.0 °F 73% 30.40 in 10.0 mi West 13.8 mph - N/A   Clear
3:53 PM 3.0 °F -11.5 °F -4.0 °F 73% 30.42 in 10.0 mi West 9.2 mph - N/A   Clear
4:53 PM -2.0 °F -16.6 °F -5.1 °F 87% 30.45 in 10.0 mi West 8.1 mph - N/A   Clear
5:53 PM -0.9 °F -17.4 °F -5.1 °F 83% 30.46 in 10.0 mi West 10.4 mph - N/A   Clear
6:53 PM -2.0 °F -16.6 °F -5.1 °F 87% 30.48 in 10.0 mi West 8.1 mph - N/A   Clear
7:53 PM -2.9 °F -17.7 °F -7.1 °F 82% 30.50 in 10.0 mi WNW 8.1 mph - N/A   Clear
8:11 PM -2.2 °F -18.9 °F -7.6 °F 78% 30.35 in 10.0 mi West 10.4 mph - N/A   Mostly Cloudy
8:53 PM -2.9 °F -20.8 °F -8.0 °F 79% 30.51 in 10.0 mi West 11.5 mph - N/A   Overcast
9:53 PM -4.0 °F -22.1 °F -8.0 °F 83% 30.52 in 10.0 mi West 11.5 mph - N/A   Overcast
10:53 PM -4.0 °F -17.8 °F -8.0 °F 83% 30.54 in 10.0 mi West 6.9 mph - N/A   Overcast
11:53 PM -4.0 °F -21.2 °F -8.0 °F 83% 30.55 in 10.0 mi West 10.4 mph - N/A   Overcast